Weather History for Houston, TX

Change the Weather History Date:

Tuesday, November 26, 2013

  Actual Average Record
Temperature  
Mean Temperature 42 °F 59 °F  
Max Temperature 44 °F 69 °F 86 °F (1967)
Min Temperature 39 °F 49 °F 27 °F (1975)
Degree Days  
Heating Degree Days 23 8  
Month to date heating degree days 170 122  
Since 1 July heating degree days 178 152  
Moisture  
Dew Point 37 °F    
Average Humidity 91    
Maximum Humidity 100    
Minimum Humidity 82    
Precipitation  
Precipitation 0.47 in 0.14 in 3.17 in (1893)
Month to date precipitation 3.81 3.76  
Year to date precipitation 37.18 45.45  
Sea Level Pressure  
Sea Level Pressure 30.14 in    
Wind  
Wind Speed 14 mph (NW)    
Max Wind Speed 24 mph    
Max Gust Speed 33 mph    
Visibility 8 miles    
Events Rain    
T = Trace of Precipitation, MM = Missing Value Source: NWS Daily Summary

Daily Weather History Graph

Daily Weather History Graph

Search for Another Location

Airport:

Trip Planner

Search our weather history database for the weather conditions in past years. The results will help you decide how hot, cold, wet, or windy it might be!

Date:

Astronomy

Nov. 26, 2013 Rise Set
Actual Time 6:54 AM CST 5:22 PM CST
Civil Twilight 6:29 AM CST 5:47 PM CST
Nautical Twilight 5:59 AM CST 6:17 PM CST
Astronomical Twilight 5:31 AM CST 6:45 PM CST
Moon 12:28 AM CST (11/26) 1:03 PM CST (11/26)
Length of Visible Light 11h 18m
Length of Day
10h 27m
Last Quarter, 41% of the Moon is Illuminated
Nov 26
Last Quarter
Dec 2
New
Dec 9
First Quarter
Dec 17
Full
Dec 25
Last Quarter

Hourly Weather History & Observations

Time (CST) Temp. Windchill Dew Point Humidity Pressure Visibility Wind Dir Wind Speed Gust Speed Precip Events Conditions
12:53 AM 41.0 °F 32.8 °F 39.0 °F 93% 30.04 in 4.0 mi NNW 16.1 mph 23.0 mph N/A   Overcast
1:53 AM 41.0 °F 32.5 °F 37.9 °F 89% 30.04 in 10.0 mi NNW 17.3 mph 24.2 mph 0.03 in Rain Light Rain
2:53 AM 41.0 °F 34.3 °F 37.9 °F 89% 30.05 in 8.0 mi NNW 11.5 mph - 0.11 in Rain Rain
3:53 AM 41.0 °F 36.4 °F 37.9 °F 89% 30.08 in 9.0 mi North 6.9 mph - 0.11 in Rain Rain
4:53 AM 41.0 °F 33.5 °F 37.9 °F 89% 30.08 in 10.0 mi NNW 13.8 mph - N/A Rain Light Rain
5:21 AM 39.2 °F 31.6 °F 37.4 °F 93% 30.06 in 9.0 mi NNW 12.7 mph - 0.02 in Rain Rain
5:53 AM 39.9 °F 32.5 °F 37.9 °F 93% 30.07 in 10.0 mi North 12.7 mph - 0.03 in Rain Light Rain
6:37 AM 39.2 °F 30.2 °F 37.4 °F 93% 30.10 in 10.0 mi NW 17.3 mph 23.0 mph 0.00 in   Overcast
6:53 AM 39.9 °F 31.4 °F 37.0 °F 89% 30.11 in 7.0 mi NNW 16.1 mph - 0.00 in   Overcast
7:10 AM 39.2 °F 30.2 °F 37.4 °F 93% 30.10 in 4.0 mi NNW 17.3 mph 23.0 mph 0.00 in Rain Light Rain
7:13 AM 39.2 °F 31.2 °F 37.4 °F 93% 30.10 in 2.0 mi NNW 13.8 mph 23.0 mph 0.00 in Rain Light Rain
7:53 AM 39.9 °F 32.9 °F 37.9 °F 93% 30.11 in 2.0 mi NNW 11.5 mph - 0.07 in Rain Heavy Rain
8:19 AM 39.2 °F 31.6 °F 37.4 °F 93% 30.10 in 2.0 mi NNW 12.7 mph - 0.02 in Rain Light Rain
8:41 AM 41.0 °F 33.5 °F 37.4 °F 87% 30.12 in 10.0 mi NW 13.8 mph 19.6 mph 0.02 in   Overcast
8:53 AM 39.9 °F 31.8 °F 37.0 °F 89% 30.14 in 10.0 mi NW 15.0 mph 21.9 mph 0.02 in   Overcast
9:07 AM 39.2 °F - 37.4 °F 93% 30.12 in - North - - N/A   Unknown
9:53 AM 39.9 °F 31.4 °F 37.0 °F 89% 30.14 in 10.0 mi NW 16.1 mph 21.9 mph N/A   Overcast
10:53 AM 42.1 °F 33.6 °F 37.0 °F 82% 30.12 in 10.0 mi NNW 18.4 mph 25.3 mph N/A   Overcast
11:53 AM 42.1 °F 33.9 °F 36.0 °F 79% 30.12 in 10.0 mi NW 17.3 mph - N/A   Overcast
12:53 PM 41.0 °F 33.1 °F 37.0 °F 86% 30.12 in 6.0 mi NW 15.0 mph 24.2 mph N/A   Overcast
1:20 PM 42.8 °F 36.6 °F 37.4 °F 81% 30.09 in 10.0 mi NW 11.5 mph 25.3 mph N/A   Overcast
1:53 PM 41.0 °F 31.6 °F 37.0 °F 86% 30.12 in 10.0 mi WNW 20.7 mph 27.6 mph 0.01 in Rain Light Rain
2:53 PM 39.9 °F 32.5 °F 36.0 °F 86% 30.13 in 10.0 mi NW 12.7 mph 23.0 mph 0.04 in Rain Light Rain
3:53 PM 42.1 °F 34.5 °F 37.0 °F 82% 30.15 in 10.0 mi NW 15.0 mph - 0.00 in   Overcast
4:53 PM 43.0 °F 36.4 °F 37.9 °F 82% 30.17 in 10.0 mi NW 12.7 mph - N/A   Overcast
5:53 PM 44.1 °F 37.7 °F 37.9 °F 79% 30.20 in 10.0 mi NW 12.7 mph 20.7 mph N/A   Overcast
6:30 PM 44.6 °F 38.4 °F 37.4 °F 76% 30.20 in 10.0 mi NW 12.7 mph 19.6 mph N/A   Overcast
6:53 PM 45.0 °F 38.9 °F 37.9 °F 76% 30.22 in 10.0 mi NW 12.7 mph - N/A   Overcast
7:53 PM 45.0 °F 39.3 °F 37.9 °F 76% 30.25 in 10.0 mi NW 11.5 mph - N/A   Overcast
8:53 PM 44.1 °F 39.5 °F 37.0 °F 76% 30.26 in 10.0 mi NW 8.1 mph - N/A   Scattered Clouds
9:53 PM 43.0 °F 38.8 °F 37.0 °F 80% 30.27 in 10.0 mi WNW 6.9 mph - N/A   Scattered Clouds
10:53 PM 44.1 °F 39.0 °F 36.0 °F 73% 30.28 in 10.0 mi NW 9.2 mph 17.3 mph N/A   Partly Cloudy
11:53 PM 44.1 °F 38.6 °F 35.1 °F 71% 30.29 in 10.0 mi NNW 10.4 mph - N/A   Partly Cloudy